Michigan City, IN

4:13 AM CDT on September 30, 2016 (GMT -0500)
Michigan City Municipal

Weather History for KMGC - September, 2013

Change the Weather History Date:

Thursday, September 12, 2013

  Actual Average (KVPZ) Record (KVPZ)
Temperature  
Mean Temperature 68 °F 65 °F  
Max Temperature 77 °F 76 °F 89 °F (2005)
Min Temperature 60 °F 54 °F 46 °F (2007)
Degree Days  
Heating Degree Days 0 2  
Month to date heating degree days 19  
Since 1 July heating degree days 36  
Cooling Degree Days 4 2  
Month to date cooling degree days 41  
Year to date cooling degree days 677  
Growing Degree Days 18 (Base 50)    
Moisture  
Dew Point 58 °F    
Average Humidity 71    
Maximum Humidity 94    
Minimum Humidity 39    
Precipitation  
Precipitation 0.00 in 0.10 in 0.45 in (2000)
Month to date precipitation 1.45  
Year to date precipitation 26.99  
Sea Level Pressure  
Sea Level Pressure 29.99 in    
Wind  
Wind Speed 4 mph (North)    
Max Wind Speed 17 mph    
Max Gust Speed 24 mph    
Visibility 9 miles    
Events Fog , Rain    
T = Trace of Precipitation, MM = Missing Value Source: NWS Daily Summary

Daily Weather History Graph

Daily Weather History Graph

Search for Another Location

Airport or City:

Trip Planner

Search our weather history database for the weather conditions in past years. The results will help you decide how hot, cold, wet, or windy it might be!

Date:

Astronomy

Sep. 12, 2013 Rise Set
Actual Time 6:24 AM CDT 7:01 PM CDT
Civil Twilight 5:56 AM CDT 7:29 PM CDT
Nautical Twilight 5:23 AM CDT 8:02 PM CDT
Astronomical Twilight 4:49 AM CDT 8:36 PM CDT
Moon 1:57 PM CDT (9/12) 11:51 PM CDT (9/12)
Length of Visible Light 13h 32m
Length of Day
12h 36m
Waxing Crescent, 50% of the Moon is Illuminated
Sep 12
Waxing Crescent
Sep 12
First Quarter
Sep 19
Full
Sep 26
Last Quarter
Oct 4
New

Hourly Weather History & Observations

Time (CDT) Temp. Dew Point Humidity Pressure Visibility Wind Dir Wind Speed Gust Speed Precip Events Conditions
12:15 AM 69.8 °F 66.2 °F 88% 30.00 in 10.0 mi Calm Calm - N/A   Overcast
12:35 AM 68.0 °F 66.2 °F 94% 29.99 in 10.0 mi Calm Calm - N/A Rain Light Rain
12:55 AM 69.8 °F 68.0 °F 94% 29.99 in 10.0 mi SSW 3.5 mph - N/A   Overcast
1:15 AM 69.8 °F 68.0 °F 94% 29.99 in 10.0 mi SSW 4.6 mph - N/A Rain Light Rain
1:35 AM 69.8 °F 68.0 °F 94% 29.98 in 10.0 mi Calm Calm - N/A   Overcast
1:55 AM 68.0 °F 66.2 °F 94% 29.98 in 7.0 mi SW 3.5 mph - N/A   Overcast
2:15 AM 68.0 °F 66.2 °F 94% 29.98 in 7.0 mi Calm Calm - N/A   Scattered Clouds
2:35 AM 68.0 °F 66.2 °F 94% 29.97 in 7.0 mi Calm Calm - N/A   Clear
2:55 AM 68.0 °F 66.2 °F 94% 29.97 in 7.0 mi Calm Calm - N/A   Clear
3:15 AM 68.0 °F 64.4 °F 88% 29.97 in 0.5 mi Calm Calm - N/A Fog Fog
3:35 AM 68.0 °F 66.2 °F 94% 29.97 in 7.0 mi SSW 3.5 mph - N/A   Scattered Clouds
3:55 AM 68.0 °F 66.2 °F 94% 29.97 in 4.0 mi Calm Calm - N/A   Scattered Clouds
4:15 AM 68.0 °F 64.4 °F 88% 29.98 in 7.0 mi Calm Calm - N/A   Scattered Clouds
4:35 AM 68.0 °F 66.2 °F 94% 29.97 in 7.0 mi Calm Calm - N/A   Scattered Clouds
4:55 AM 69.8 °F 66.2 °F 88% 29.98 in 10.0 mi NW 3.5 mph - N/A   Clear
5:15 AM 69.8 °F 66.2 °F 88% 29.98 in 10.0 mi NW 3.5 mph - N/A   Clear
5:35 AM 69.8 °F 64.4 °F 83% 29.99 in 10.0 mi North 4.6 mph - N/A   Clear
5:55 AM 68.0 °F 64.4 °F 88% 29.99 in 10.0 mi North 6.9 mph - N/A   Clear
6:15 AM 66.2 °F 62.6 °F 88% 29.99 in 10.0 mi North 5.8 mph - N/A   Clear
6:35 AM 66.2 °F 60.8 °F 83% 29.99 in 10.0 mi Calm Calm - N/A   Clear
6:55 AM 64.4 °F 60.8 °F 88% 29.99 in 10.0 mi Calm Calm - N/A   Clear
7:15 AM 64.4 °F 60.8 °F 88% 30.00 in 10.0 mi Calm Calm - N/A   Scattered Clouds
7:35 AM 64.4 °F 62.6 °F 94% 30.00 in 10.0 mi Calm Calm - N/A   Scattered Clouds
7:55 AM 64.4 °F 62.6 °F 94% 29.99 in 10.0 mi Calm Calm - N/A   Clear
8:15 AM 66.2 °F 64.4 °F 94% 30.00 in 10.0 mi Calm Calm - N/A   Clear
8:35 AM 68.0 °F 62.6 °F 83% 30.00 in 10.0 mi Calm Calm - N/A   Clear
8:55 AM 69.8 °F 59.0 °F 68% 30.00 in 10.0 mi Calm Calm - N/A   Clear
9:15 AM 69.8 °F 60.8 °F 73% 30.00 in 10.0 mi Calm Calm - N/A   Scattered Clouds
9:35 AM 71.6 °F 55.4 °F 57% 30.00 in 10.0 mi Calm Calm - N/A   Clear
9:55 AM 71.6 °F 55.4 °F 57% 29.99 in 10.0 mi Calm Calm - N/A   Clear
10:15 AM 73.4 °F 53.6 °F 50% 29.99 in 10.0 mi Calm Calm - N/A   Scattered Clouds
10:35 AM 73.4 °F 53.6 °F 50% 30.00 in 10.0 mi Calm Calm - N/A   Clear
10:55 AM 73.4 °F 51.8 °F 47% 30.00 in 10.0 mi Calm Calm - N/A   Mostly Cloudy
11:15 AM 75.2 °F 51.8 °F 44% 29.99 in 10.0 mi Calm Calm - N/A   Scattered Clouds
11:35 AM 75.2 °F 50.0 °F 41% 29.99 in 10.0 mi North 3.5 mph - N/A   Scattered Clouds
11:55 AM 77.0 °F 50.0 °F 39% 29.98 in 10.0 mi SW 4.6 mph - N/A   Scattered Clouds
12:15 PM 77.0 °F 50.0 °F 39% 29.97 in 10.0 mi NW 3.5 mph - N/A   Scattered Clouds
12:35 PM 77.0 °F 51.8 °F 41% 29.96 in 10.0 mi Calm Calm - N/A   Mostly Cloudy
12:55 PM 77.0 °F 51.8 °F 41% 29.95 in 10.0 mi WNW 4.6 mph - N/A   Overcast
1:15 PM 77.0 °F 55.4 °F 47% 29.94 in 10.0 mi North 6.9 mph - N/A   Mostly Cloudy
1:35 PM 77.0 °F 51.8 °F 41% 29.94 in 10.0 mi North 8.1 mph - N/A   Mostly Cloudy
1:55 PM 73.4 °F 53.6 °F 50% 29.93 in 10.0 mi NNE 3.5 mph - N/A   Mostly Cloudy
2:15 PM 75.2 °F 53.6 °F 47% 29.94 in 10.0 mi NNE 10.4 mph - N/A   Mostly Cloudy
2:35 PM 73.4 °F 55.4 °F 53% 29.93 in 10.0 mi North 6.9 mph - N/A   Scattered Clouds
2:55 PM 73.4 °F 51.8 °F 47% 29.92 in 10.0 mi NNE 10.4 mph - N/A   Clear
3:15 PM 73.4 °F 53.6 °F 50% 29.93 in 10.0 mi North 8.1 mph - N/A   Clear
3:35 PM 73.4 °F 53.6 °F 50% 29.93 in 10.0 mi North 10.4 mph - N/A   Clear
3:55 PM 71.6 °F 59.0 °F 64% 29.92 in 10.0 mi NE 11.5 mph - N/A   Clear
4:15 PM 71.6 °F 59.0 °F 64% 29.93 in 10.0 mi North 9.2 mph 18.4 mph N/A   Scattered Clouds
4:35 PM 64.4 °F 60.8 °F 88% 29.95 in 1.8 mi North 12.7 mph 24.2 mph N/A Rain Rain
4:55 PM 64.4 °F 59.0 °F 83% 29.96 in 10.0 mi North 13.8 mph 20.7 mph N/A   Mostly Cloudy
5:15 PM 64.4 °F 59.0 °F 83% 29.97 in 10.0 mi North 12.7 mph 19.6 mph N/A   Mostly Cloudy
5:35 PM 64.4 °F 57.2 °F 77% 29.98 in 10.0 mi North 10.4 mph 18.4 mph N/A Rain Light Rain
5:55 PM 64.4 °F 55.4 °F 73% 29.98 in 10.0 mi North 8.1 mph - N/A   Mostly Cloudy
6:15 PM 66.2 °F 55.4 °F 68% 29.99 in 10.0 mi North 11.5 mph 16.1 mph N/A   Mostly Cloudy
6:35 PM 64.4 °F 55.4 °F 73% 29.99 in 10.0 mi North 12.7 mph 19.6 mph N/A   Scattered Clouds
6:55 PM 64.4 °F 55.4 °F 73% 30.00 in 10.0 mi North 11.5 mph 19.6 mph N/A   Clear
7:15 PM 64.4 °F 53.6 °F 68% 30.01 in 10.0 mi North 12.7 mph 19.6 mph N/A   Clear
7:35 PM 62.6 °F 51.8 °F 68% 30.02 in 10.0 mi North 11.5 mph 17.3 mph N/A   Clear
7:55 PM 64.4 °F 51.8 °F 64% 30.02 in 10.0 mi North 8.1 mph 18.4 mph N/A   Clear
8:15 PM 64.4 °F 51.8 °F 64% 30.03 in 10.0 mi North 8.1 mph 19.6 mph N/A   Scattered Clouds
8:35 PM 62.6 °F 51.8 °F 68% 30.03 in 10.0 mi North 13.8 mph 23.0 mph N/A   Clear
8:55 PM 62.6 °F 53.6 °F 72% 30.04 in 10.0 mi NNE 13.8 mph 18.4 mph N/A   Mostly Cloudy
9:15 PM 62.6 °F 51.8 °F 68% 30.04 in 10.0 mi North 10.4 mph - N/A   Mostly Cloudy
9:35 PM 62.6 °F 51.8 °F 68% 30.04 in 10.0 mi NNE 12.7 mph 19.6 mph N/A   Overcast
9:55 PM 62.6 °F 50.0 °F 63% 30.04 in 10.0 mi North 17.3 mph 21.9 mph N/A   Mostly Cloudy
10:15 PM 62.6 °F 50.0 °F 63% 30.05 in 10.0 mi North 13.8 mph 20.7 mph N/A   Mostly Cloudy
10:35 PM 62.6 °F 50.0 °F 63% 30.05 in 10.0 mi NNE 11.5 mph 17.3 mph N/A   Mostly Cloudy
10:55 PM 62.6 °F 50.0 °F 63% 30.06 in 10.0 mi NNE 8.1 mph 16.1 mph N/A   Mostly Cloudy
11:15 PM 62.6 °F 50.0 °F 63% 30.06 in 10.0 mi NNE 12.7 mph 19.6 mph N/A   Overcast
11:35 PM 60.8 °F 50.0 °F 68% 30.07 in 10.0 mi North 6.9 mph - N/A   Overcast
11:55 PM 60.8 °F 50.0 °F 68% 30.06 in 10.0 mi NNE 11.5 mph 21.9 mph N/A   Overcast